TimeEDT,TemperatureF,Dew PointF,Humidity,Sea Level PressureIn,VisibilityMPH,Wind Direction,Wind SpeedMPH,Gust SpeedMPH,PrecipitationIn,Events,Conditions,WindDirDegrees,DateUTC
12:55 AM,45.0,43.0,93,30.15,10.0,ENE,4.6,-,N/A,,Clear,60,2013-09-24 04:55:00
1:55 AM,44.1,42.1,93,30.15,10.0,ENE,3.5,-,N/A,,Clear,60,2013-09-24 05:55:00
2:55 AM,43.0,42.1,97,30.15,10.0,NE,3.5,-,N/A,,Clear,50,2013-09-24 06:55:00
3:55 AM,43.0,41.0,93,30.15,10.0,ENE,3.5,-,N/A,,Clear,70,2013-09-24 07:55:00
4:55 AM,43.0,41.0,93,30.15,10.0,NE,4.6,-,N/A,,Clear,50,2013-09-24 08:55:00
5:55 AM,42.1,41.0,96,30.16,10.0,ENE,4.6,-,N/A,,Clear,70,2013-09-24 09:55:00
6:55 AM,42.1,41.0,96,30.17,10.0,East,4.6,-,N/A,,Clear,80,2013-09-24 10:55:00
7:34 AM,43.0,41.0,93,30.16,6.0,Calm,Calm,-,N/A,,Scattered Clouds,0,2013-09-24 11:34:00
7:41 AM,42.1,41.0,96,30.16,2.5,East,3.5,-,N/A,,Mostly Cloudy,80,2013-09-24 11:41:00
7:55 AM,42.1,41.0,96,30.17,1.2,East,4.6,-,N/A,,Overcast,80,2013-09-24 11:55:00
8:05 AM,43.0,42.1,97,30.17,0.2,East,3.5,-,N/A,Fog,Fog,80,2013-09-24 12:05:00
8:55 AM,44.1,43.0,96,30.18,0.2,East,4.6,-,N/A,Fog,Fog,80,2013-09-24 12:55:00
9:55 AM,46.9,46.0,97,30.18,0.2,Calm,Calm,-,N/A,Fog,Fog,0,2013-09-24 13:55:00
10:55 AM,50.0,48.9,96,30.17,3.0,East,3.5,-,N/A,,Overcast,80,2013-09-24 14:55:00
11:28 AM,53.1,51.1,93,30.15,10.0,Variable,3.5,-,N/A,,Scattered Clouds,0,2013-09-24 15:28:00
11:55 AM,57.0,48.9,74,30.14,10.0,Variable,3.5,-,N/A,,Partly Cloudy,0,2013-09-24 15:55:00
12:55 PM,61.0,48.0,62,30.13,10.0,Variable,4.6,-,N/A,,Clear,0,2013-09-24 16:55:00
1:55 PM,62.1,46.9,58,30.11,10.0,Variable,3.5,-,N/A,,Clear,0,2013-09-24 17:55:00
2:55 PM,63.0,46.0,54,30.09,10.0,ESE,4.6,-,N/A,,Clear,110,2013-09-24 18:55:00
3:55 PM,64.0,46.0,52,30.07,10.0,ENE,4.6,-,N/A,,Clear,70,2013-09-24 19:55:00
4:55 PM,64.9,46.9,52,30.05,10.0,Variable,3.5,-,N/A,,Clear,0,2013-09-24 20:55:00
5:55 PM,63.0,46.0,54,30.06,10.0,SE,6.9,-,N/A,,Clear,140,2013-09-24 21:55:00
6:55 PM,61.0,46.0,58,30.06,10.0,SE,4.6,-,N/A,,Clear,130,2013-09-24 22:55:00
7:55 PM,57.0,46.0,67,30.06,10.0,SSE,4.6,-,N/A,,Clear,160,2013-09-24 23:55:00
8:55 PM,54.0,45.0,72,30.06,10.0,South,4.6,-,N/A,,Clear,170,2013-09-25 00:55:00
9:55 PM,51.1,45.0,80,30.06,10.0,Calm,Calm,-,N/A,,Clear,0,2013-09-25 01:55:00
10:55 PM,46.9,44.1,90,30.05,10.0,Calm,Calm,-,N/A,,Clear,0,2013-09-25 02:55:00
11:55 PM,46.9,43.0,86,30.04,10.0,Calm,Calm,-,N/A,,Clear,0,2013-09-25 03:55:00